Location: Napier
(39.4830°S, 176.9170°E)
Time: 14:52:52
(UTC+12:00)

Cosmos 1441 Rocket - Pass Details

Date: 15 August 2020
Orbit: 497 x 540 km, 81.1° (Epoch: 23 September)

Event Time Altitude Azimuth Distance (km) Brightness Sun altitude
Rises 18:24:43 0° 185° (S) 2,732 6.8 -10.3°
Reaches altitude 10° 18:26:57 10° 180° (S) 1,827 5.9 -10.7°
Maximum altitude 18:30:54 54° 102° (ESE) 659 3.3 -11.5°
Drops below altitude 10° 18:34:45 10° 23° (NNE) 1,778 5.8 -12.2°
Sets 18:36:54 0° 18° (NNE) 2,651 6.7 -12.6°
